User: anonymous   Login
Location: Unspecified
(0.0000°N, 0.0000°E)
Time: 02:07:57
(UTC+00:00)
Language:

STARLINK-34845 - Orbit

View from above orbital plane
View from above orbital plane
View from above satellite
View from above satellite

Ground track
Ground track

The orbit is defined by the following mean orbital elements,

1 65289U          26145.58194500 +.00000000 +00000-0 +17420-3 0 00000
2 65289  97.4495 198.1187 0002610 123.9352 236.2124 15.05655530    04
Epoch (UTC): 25 May 2026 13:58:00
Eccentricity: 0.0002610
inclination: 97.4495°
perigee height: 548 km
apogee height: 551 km
right ascension of ascending node: 198.1187°
argument of perigee: 123.9352°
revolutions per day: 15.05655530
mean anomaly at epoch: 236.2124°

The dashed part of the orbit path shows where the satellite is in the earth's shadow,  

DLR